This is the latest recevied weather packets stored in our database for station/object K4PAD. If no packets are shown the sender has not sent any weather packets the latest 10 day(s).
| Time | Temp. | Humidity | Pressure | Rain* | Wind** | Luminosity | Snow |
|---|---|---|---|---|---|---|---|
| 1777861228 | 15.56° C | 77% | 1019.8 hPa | 0 mm | - | 0 W/m² | - |
| 1777860926 | 16.11° C | 76% | 1020 hPa | 0 mm | - | 0 W/m² | - |
| 1777860623 | 16.11° C | 76% | 1019.8 hPa | 0 mm | - | 0 W/m² | - |
| 1777860320 | 16.67° C | 75% | 1019.9 hPa | 0 mm | - | 0 W/m² | - |
| 1777860016 | 16.67° C | 74% | 1019.7 hPa | 0 mm | - | 0 W/m² | - |
| 1777859713 | 16.67° C | 73% | 1019.5 hPa | 0 mm | - | 0 W/m² | - |
| 1777859409 | 17.22° C | 71% | 1019.4 hPa | 0 mm | - | 0 W/m² | - |
| 1777859105 | 17.22° C | 70% | 1019.4 hPa | 0 mm | - | 0 W/m² | - |
| 1777858802 | 17.22° C | 69% | 1019.6 hPa | 0 mm | - | 0 W/m² | - |
| 1777858500 | 17.22° C | 68% | 1019.4 hPa | 0 mm | - | 0 W/m² | - |
| 1777858195 | 17.78° C | 67% | 1019.3 hPa | 0 mm | - | 0 W/m² | - |
| 1777857894 | 17.78° C | 66% | 1019.2 hPa | 0 mm | - | 0 W/m² | - |
| 1777857592 | 17.78° C | 65% | 1019.1 hPa | 0 mm | - | 0 W/m² | - |
| 1777857288 | 18.33° C | 64% | 1018.8 hPa | 0 mm | - | 0 W/m² | - |
| 1777856984 | 18.33° C | 63% | 1019 hPa | 0 mm | - | 0 W/m² | - |
| 1777856680 | 18.33° C | 61% | 1018.8 hPa | 0 mm | - | 0 W/m² | - |
| 1777856376 | 18.89° C | 60% | 1018.9 hPa | 0 mm | - | 0 W/m² | - |
| 1777856073 | 18.89° C | 59% | 1019 hPa | 0 mm | - | 0 W/m² | - |
| 1777855770 | 18.89° C | 59% | 1018.8 hPa | 0 mm | - | 0 W/m² | - |
| 1777855468 | 18.89° C | 58% | 1018.9 hPa | 0 mm | - | 0 W/m² | - |
| 1777855165 | 19.44° C | 56% | 1018.8 hPa | 0 mm | - | 0 W/m² | - |
| 1777854861 | 19.44° C | 56% | 1018.7 hPa | 0 mm | - | 0 W/m² | - |
| 1777854558 | 19.44° C | 54% | 1018.7 hPa | 0 mm | - | 0 W/m² | - |
| 1777854255 | 19.44° C | 53% | 1018.7 hPa | 0 mm | - | 0 W/m² | - |
| 1777853952 | 20° C | 52% | 1018.6 hPa | 0 mm | - | 1 W/m² | - |
* Rain latest hour (hover to see other rain measurements)
** Current wind speed in m/s (hover to see current wind gust speed)